BEIDOU-3 M24

Last updated on Sun Apr 12 2026 00:02:39 GMT+0000 (Coordinated Universal Time)

1 44542U 19061A 26099.51222014 -.00000007 00000+0 00000+0 0 9995 2 44542 54.3955 185.0441 0008100 11.2535 348.8090 1.86229160 44512
UTC large
Height (km)
Speed (km/s)
/
Latitude / Longitude
Inclination (degrees)
Orbital Period (minutes)
Azimuth
Elevation
Range (km)
Doppler Factor

Next 0 passes for location: London (51.5072 / 0.1276)

Sorry there are no passes over London.
BEIDOU-3 M24